Terug naar catalogus

DELTA 1 DEB

ActiefLEO
NORAD 10874·DEBRIS·🇺🇸 United States

Gelanceerd Jul 29, 1976 vanaf Vandenberg Space Force Base

Loading…

Volgende Passages (komende 24 uur)

TLE

VersSource: Space-Track

Epoch: Sep 14, 2026, 10:35 UTC

1 10874U 76077DC  26257.44110916  .00001052  00000-0  28318-2 0  9997
2 10874 102.0148  74.6569 0066835  75.6400 313.2907 13.17255323349222

Volg DELTA 1 DEB in realtime met AllMySat

Download on the App Store